Location: Góry Miechowskie
(50.3599°N, 20.1803°E)
Time: 07:33:45
(UTC+00:00)

A-11 Canister half - Pass Details

Date: 15 September 2024
Orbit: 1524 x 1683 km, 47.3° (Epoch: 12 October)

Event Time Altitude Azimuth Distance (km) Brightness Sun altitude
Rises 18:56:30 0° 288° (WNW) 4,836 13.1 -19.6°
Reaches altitude 10° 19:00:01 10° 280° (W) 3,870 12.1 -20.1°
Maximum altitude 19:08:19 32° 222° (SW) 2,573 10.2 -21.2°
Enters shadow 19:15:04 15° 171° (S) 3,506 10.5 -22.1°
